TimeEDT,TemperatureF,Dew PointF,Humidity,Sea Level PressureIn,VisibilityMPH,Wind Direction,Wind SpeedMPH,Gust SpeedMPH,PrecipitationIn,Events,Conditions,WindDirDegrees,DateUTC
12:53 AM,78.1,70.0,76,30.06,10.0,ESE,9.2,-,N/A,,Clear,120,2013-05-20 04:53:00
1:53 AM,77.0,71.1,82,30.04,10.0,East,6.9,-,N/A,,Clear,100,2013-05-20 05:53:00
2:53 AM,77.0,71.1,82,30.03,10.0,SE,4.6,-,N/A,,Clear,130,2013-05-20 06:53:00
3:53 AM,78.8,71.6,78,30.01,10.0,ESE,5.8,-,N/A,,Clear,110,2013-05-20 07:53:00
4:53 AM,77.0,71.1,82,30.01,10.0,ESE,4.6,-,N/A,,Partly Cloudy,120,2013-05-20 08:53:00
5:53 AM,78.1,72.0,81,30.01,10.0,SE,8.1,-,N/A,,Scattered Clouds,130,2013-05-20 09:53:00
6:53 AM,78.8,71.6,78,30.02,10.0,SSE,6.9,-,N/A,Rain,Light Rain,150,2013-05-20 10:53:00
7:53 AM,80.1,72.0,76,30.05,10.0,SSE,10.4,-,0.00,,Partly Cloudy,150,2013-05-20 11:53:00
8:53 AM,81.0,71.1,72,30.06,10.0,SE,12.7,-,N/A,,Partly Cloudy,140,2013-05-20 12:53:00
9:53 AM,84.0,71.1,65,30.06,10.0,SE,15.0,-,N/A,,Mostly Cloudy,130,2013-05-20 13:53:00
10:51 AM,82.4,69.8,66,30.06,10.0,SSE,13.8,-,N/A,,Mostly Cloudy,150,2013-05-20 14:51:00
10:53 AM,82.9,70.0,65,30.06,10.0,SSE,15.0,-,N/A,,Mostly Cloudy,150,2013-05-20 14:53:00
11:08 AM,86.0,71.6,62,30.06,10.0,SE,12.7,-,N/A,,Overcast,130,2013-05-20 15:08:00
11:53 AM,87.1,72.0,61,30.06,10.0,SE,16.1,21.9,N/A,,Scattered Clouds,130,2013-05-20 15:53:00
12:53 PM,82.0,70.0,67,30.04,10.0,SE,18.4,-,N/A,,Mostly Cloudy,130,2013-05-20 16:53:00
1:36 PM,80.6,71.6,74,30.04,10.0,ESE,12.7,-,N/A,Thunderstorm,Thunderstorm,110,2013-05-20 17:36:00
1:44 PM,80.6,69.8,70,30.04,10.0,ESE,15.0,21.9,N/A,Thunderstorm,Thunderstorm,110,2013-05-20 17:44:00
1:53 PM,80.1,70.0,71,30.06,10.0,ESE,11.5,23.0,N/A,Thunderstorm,Thunderstorm,110,2013-05-20 17:53:00
2:53 PM,78.1,72.0,81,30.04,10.0,East,6.9,-,0.00,Rain-Thunderstorm,Light Thunderstorms and Rain,90,2013-05-20 18:53:00
3:53 PM,75.9,72.0,87,30.05,10.0,ENE,8.1,-,0.05,Rain-Thunderstorm,Light Thunderstorms and Rain,70,2013-05-20 19:53:00
4:53 PM,75.0,73.0,94,30.03,10.0,East,3.5,-,0.05,Rain-Thunderstorm,Light Thunderstorms and Rain,90,2013-05-20 20:53:00
5:44 PM,75.2,73.4,94,30.00,10.0,SE,5.8,-,0.07,Rain,Light Rain,140,2013-05-20 21:44:00
5:53 PM,75.9,73.9,94,30.01,10.0,SSE,6.9,-,0.08,Rain,Light Rain,150,2013-05-20 21:53:00
6:53 PM,78.1,75.0,90,29.99,10.0,East,4.6,-,0.00,,Scattered Clouds,100,2013-05-20 22:53:00
7:34 PM,78.8,73.4,83,29.99,10.0,East,4.6,-,0.01,,Mostly Cloudy,90,2013-05-20 23:34:00
7:46 PM,78.8,73.4,83,30.00,10.0,East,3.5,-,0.01,,Scattered Clouds,100,2013-05-20 23:46:00
7:53 PM,78.1,75.0,90,30.00,10.0,Calm,Calm,-,0.01,,Mostly Cloudy,0,2013-05-20 23:53:00
8:00 PM,78.8,75.2,89,30.00,10.0,NNE,3.5,-,N/A,,Mostly Cloudy,20,2013-05-21 00:00:00
8:07 PM,78.8,75.2,89,30.01,10.0,NE,3.5,-,N/A,,Mostly Cloudy,40,2013-05-21 00:07:00
8:28 PM,78.8,73.4,83,30.03,10.0,ESE,4.6,-,0.00,Rain-Thunderstorm,Light Rain,120,2013-05-21 00:28:00
8:39 PM,78.8,73.4,83,30.03,6.0,South,5.8,-,0.02,Rain,Rain,170,2013-05-21 00:39:00
8:50 PM,77.0,73.4,89,30.03,10.0,South,8.1,-,0.03,Rain-Thunderstorm,Light Rain,190,2013-05-21 00:50:00
8:53 PM,77.0,73.9,90,30.03,10.0,South,9.2,-,0.04,Rain-Thunderstorm,Light Rain,180,2013-05-21 00:53:00
9:53 PM,71.6,69.8,94,30.06,10.0,ENE,21.9,28.8,N/A,Rain-Thunderstorm,Light Thunderstorms and Rain,60,2013-05-21 01:53:00
10:01 PM,71.6,68.0,88,30.06,10.0,East,18.4,28.8,0.00,Rain-Thunderstorm,Light Thunderstorms and Rain,80,2013-05-21 02:01:00
10:09 PM,71.6,69.8,94,30.07,8.0,ESE,18.4,-,0.03,Rain-Thunderstorm,Thunderstorms and Rain,110,2013-05-21 02:09:00
10:23 PM,71.6,69.8,94,30.08,7.0,SE,11.5,-,0.10,Rain-Thunderstorm,Heavy Thunderstorms and Rain,130,2013-05-21 02:23:00
10:53 PM,70.0,66.9,90,30.07,10.0,SE,8.1,-,0.15,Rain-Thunderstorm,Light Thunderstorms and Rain,140,2013-05-21 02:53:00
11:53 PM,71.1,69.1,93,30.06,10.0,Calm,Calm,-,0.04,Rain-Thunderstorm,Light Thunderstorms and Rain,0,2013-05-21 03:53:00